FW5469 Weather Reports


Display with metric or nautical units.
time (UTC)temp
F
wind
direction
speed
MPH
gust
MPH
rain 1hr
in
rain 24hr
in
rain mn
in
humidity
%
barometer
mb
20260902231605 91 0 0.0 5.0 0.00 0.00 0.00 64 1013.3
20260902230111 91 0 0.0 2.0 0.00 0.00 0.00 65 1013.3
20260902224606 91 135 0.0 4.0 0.00 0.00 0.00 63 1013.3
20260902223106 91 0 1.0 7.0 0.00 0.00 0.00 62 1013.2
20260902221605 91 306 0.0 7.0 0.00 0.00 0.00 62 1013.1
20260902220109 92 130 1.0 8.0 0.00 0.00 0.00 61 1013.2
20260902214607 93 133 1.0 7.0 0.00 0.00 0.00 59 1013.2
20260902213109 94 276 2.0 6.0 0.00 0.00 0.00 58 1013.3
20260902211608 95 195 1.0 8.0 0.00 0.00 0.00 57 1013.4
20260902204608 94 283 1.0 7.0 0.00 0.00 0.00 58 1013.7
20260902203101 95 0 1.0 6.0 0.00 0.00 0.00 57 1013.9
20260902201609 95 153 2.0 6.0 0.00 0.00 0.00 56 1013.9
20260902200107 95 235 1.0 5.0 0.00 0.00 0.00 57 1014.0
20260902194605 95 238 3.0 7.0 0.00 0.00 0.00 59 1014.2
20260902193105 94 278 2.0 7.0 0.00 0.00 0.00 61 1014.4
20260902191604 94 151 2.0 7.0 0.00 0.00 0.00 61 1014.5
20260902184608 95 314 3.0 6.0 0.00 0.00 0.00 56 1014.8
20260902183105 93 211 1.0 9.0 0.00 0.00 0.00 61 1014.8
20260902181604 94 146 2.0 5.0 0.00 0.00 0.00 58 1015.1
20260902180104 93 148 1.0 7.0 0.00 0.00 0.00 59 1015.1
20260902174608 93 201 1.0 10.0 0.00 0.00 0.00 60 1015.3
20260902173104 93 155 2.0 6.0 0.00 0.00 0.00 61 1015.5
20260902171610 92 158 2.0 7.0 0.00 0.00 0.00 61 1015.8
20260902170107 91 221 0.0 7.0 0.00 0.00 0.00 63 1015.9
20260902164605 91 162 1.0 3.0 0.00 0.00 0.00 64 1016.0
20260902163108 90 210 1.0 6.0 0.00 0.00 0.00 68 1016.2
20260902161611 89 248 1.0 5.0 0.00 0.00 0.00 68 1016.2
20260902160117 89 167 1.0 5.0 0.00 0.00 0.00 69 1016.3
20260902154607 88 209 2.0 4.0 0.00 0.00 0.00 71 1016.3
20260902153102 87 229 2.0 5.0 0.00 0.00 0.00 73 1016.4
20260902151614 86 0 1.0 3.0 0.00 0.00 0.00 74 1016.4
20260902150104 85 245 1.0 3.0 0.00 0.00 0.00 75 1016.4
20260902144617 85 0 2.0 3.0 0.00 0.00 0.00 76 1016.3
20260902143108 85 155 1.0 4.0 0.00 0.00 0.00 76 1016.3
20260902141602 84 227 0.0 3.0 0.00 0.00 0.00 77 1016.0
20260902134601 82 201 1.0 5.0 0.00 0.00 0.00 79 1016.0
20260902133109 81 196 1.0 4.0 0.00 0.00 0.00 82 1015.9
20260902131605 81 185 1.0 5.0 0.00 0.00 0.00 82 1016.1
20260902124604 79 0 1.0 4.0 0.00 0.00 0.00 84 1015.9
20260902123111 78 201 0.0 2.0 0.00 0.00 0.00 85 1016.0
20260902121604 78 0 0.0 2.0 0.00 0.00 0.00 86 1016.0
20260902114605 77 0 0.0 2.0 0.00 0.00 0.00 87 1015.6
20260902113105 77 0 1.0 3.0 0.00 0.00 0.00 87 1015.4
20260902111606 76 0 0.0 0.0 0.00 0.00 0.00 87 1015.3
20260902110106 76 0 0.0 3.0 0.00 0.00 0.00 88 1015.2
20260902104611 76 0 0.0 2.0 0.00 0.00 0.00 88 1015.2
20260902103103 76 0 0.0 0.0 0.00 0.00 0.00 88 1015.2
20260902101600 76 0 0.0 3.0 0.00 0.00 0.00 88 1015.1
20260902100100 76 209 0.0 1.0 0.00 0.00 0.00 88 1015.1
20260902094601 76 0 1.0 4.0 0.00 0.00 0.00 88 1015.1
20260902093105 76 204 0.0 3.0 0.00 0.00 0.00 89 1015.2
20260902091603 75 0 0.0 1.0 0.00 0.00 0.00 91 1015.3
20260902090101 74 0 0.0 0.0 0.00 0.00 0.00 92 1015.5
20260902084605 74 0 0.0 0.0 0.00 0.00 0.00 91 1015.6
20260902083108 74 0 0.0 0.0 0.00 0.00 0.00 91 1015.4
20260902081603 74 0 0.0 0.0 0.00 0.00 0.00 91 1015.4
20260902080115 74 0 0.0 0.0 0.00 0.00 0.00 91 1015.3
20260902074606 74 0 0.0 0.0 0.00 0.00 0.00 90 1015.1
20260902073104 74 0 0.0 0.0 0.00 0.00 0.00 90 1015.2
20260902071603 73 0 0.0 0.0 0.00 0.00 0.00 90 1015.3
20260902070108 74 0 0.0 0.0 0.00 0.00 0.00 89 1015.3
20260902064603 74 0 0.0 0.0 0.00 0.00 0.00 89 1015.5
20260902063106 73 0 0.0 0.0 0.00 0.00 0.00 89 1015.5
20260902061614 74 0 0.0 0.0 0.00 0.00 0.00 89 1015.6
20260902060108 74 337 0.0 1.0 0.00 0.00 0.00 89 1015.8
20260902054612 74 0 0.0 1.0 0.00 0.00 0.00 89 1015.6
20260902053105 74 0 0.0 0.0 0.00 0.00 0.00 89 1015.6
20260902051602 74 0 0.0 0.0 0.00 0.00 0.00 89 1015.5
20260902050106 74 0 0.0 0.0 0.00 0.00 0.00 89 1015.6
20260902044602 74 0 0.0 0.0 0.00 0.00 0.00 88 1015.4
20260902043107 75 0 0.0 0.0 0.00 0.00 0.00 88 1015.4
20260902041603 75 0 0.0 1.0 0.00 0.00 0.00 87 1015.1
20260902040106 76 0 0.0 0.0 0.00 0.00 0.00 86 1015.0
20260902034605 77 0 0.0 0.0 0.00 0.00 0.00 85 1015.1
20260902033115 78 0 0.0 1.0 0.00 0.00 0.00 84 1015.3
20260902031607 78 0 0.0 5.0 0.00 0.00 0.00 84 1015.3
20260902024603 77 0 0.0 3.0 0.00 0.00 0.00 86 1015.2
20260902023110 76 0 0.0 0.0 0.00 0.00 0.00 84 1015.1
20260902021609 77 0 0.0 0.0 0.00 0.00 0.00 82 1015.0
20260902020105 78 0 0.0 0.0 0.00 0.00 0.00 80 1014.6
20260902014603 78 0 0.0 1.0 0.00 0.00 0.00 78 1014.7
20260902013059 78 0 0.0 3.0 0.00 0.00 0.00 79 1014.7
20260902011601 78 0 0.0 0.0 0.00 0.00 0.00 80 1014.6
20260902010105 79 0 0.0 0.0 0.00 0.00 0.00 79 1014.5
20260902004606 80 0 0.0 0.0 0.00 0.00 0.00 77 1014.4
20260902003106 80 0 0.0 0.0 0.00 0.00 0.00 76 1014.4
20260902001605 81 0 0.0 1.0 0.00 0.00 0.00 75 1014.3
20260902000105 82 0 0.0 4.0 0.00 0.00 0.00 74 1014.0
20260901234609 83 155 0.0 5.0 0.00 0.00 0.00 74 1014.3
20260901233111 83 323 1.0 6.0 0.00 0.00 0.00 74 1014.6